首頁 / ETF搜尋 / 
代碼 ETF名稱 日期 市價 折溢價(%) 最新量 十日均量 最新量-10日量
0052 富邦科技 2024/07/23 183.1000 -0.02 2.66M 2.44M 226.1K
0053 元大電子 2024/07/23 101.5000 1.13 32.1K 42.0K -10.0K
00662 富邦NASDAQ 2024/07/23 83.4500 -1.12 1.55M 3.57M -2.02M
00735 國泰臺韓科技 2024/07/23 35.4600 -0.14 842.9K 2.31M -1.47M
00737 國泰AI+Robo 2024/07/23 31.3800 -1.43 128.2K 113.3K 14.9K
00762 元大全球AI 2024/07/23 64.5000 -1.76 146.9K 277.0K -130.1K
00770 國泰北美科技 2024/07/23 47.6300 -1.57 558.6K 768.6K -210.0K
00830 國泰費城半導體 2024/07/23 50.2000 -3.18 12.30M 11.16M 1.14M
00851 台新全球AI 2024/07/23 47.7000 -1.00 53.1K 57.9K -4.8K
00875 國泰網路資安 2024/07/23 32.7900 -0.58 27.4K 162.1K -134.6K
00891 中信關鍵半導體 2024/07/23 19.1800 -0.31 8.12M 11.62M -3.50M
00892 富邦台灣半導體 2024/07/23 17.1000 -0.23 2.95M 5.49M -2.54M
00893 國泰智能電動車 2024/07/23 23.2500 -2.94 1.90M 5.29M -3.39M
00895 富邦未來車 2024/07/23 29.2100 -2.30 2.96M 4.09M -1.13M
00896 中信綠能及電動車 2024/07/23 18.3700 -0.43 1.09M 1.38M -281.7K
00901 永豐智能車供應鏈 2024/07/23 20.8900 -0.67 1.90M 1.32M 577.7K
00902 中信電池及儲能 2024/07/23 9.3000 -1.27 1.75M 2.24M -486.2K
00903 富邦元宇宙 2024/07/23 14.9000 -1.53 1.40M 1.65M -246.9K
00904 新光臺灣半導體30 2024/07/23 18.5900 -0.16 2.24M 2.45M -201.7K
00909 國泰數位支付服務 2024/07/23 29.2900 -1.14 3.85M 2.96M 891.2K
00910 第一金太空衛星 2024/07/23 19.4500 -1.18 129.1K 231.1K -102.1K
00911 兆豐洲際半導體 2024/07/23 29.0400 -3.82 705.9K 1.47M -768.2K
00913 兆豐台灣晶圓製造 2024/07/23 21.9700 -0.18 1.13M 688.5K 439.4K
00925 新光標普電動車 2024/07/23 17.6200 -3.49 224.4K 272.8K -48.4K
00927 群益半導體收益 2024/07/23 19.6200 -0.20 13.45M 31.10M -17.64M
00929 復華台灣科技優息 2024/07/23 19.8200 -0.10 157.25M 187.56M -30.31M
00935 野村臺灣新科技50 2024/07/23 22.4900 0.09 8.15M 14.06M -5.91M
00941 中信上游半導體 2024/07/23 15.4000 -1.75 7.72M 12.33M -4.61M
00947 台新臺灣IC設計 2024/07/23 14.6900 0.07 8.09M 12.36M -4.27M
020023 元大櫃買半導體N 2024/07/23 6.3000 -0.11 25.0K 53.6K -28.6K
020025 統一亞洲半導體N 2024/07/23 11.1400 -0.21 98.0K 54.3K 43.7K
020028 元大特選電動車N 2024/07/23 9.5800 -0.28 39.0K 74.3K -35.3K
020030 統一智慧電動車N 2024/07/23 6.3200 -0.91 34.0K 58.6K -24.6K
020031 統一IC設計臺灣N 2024/07/23 6.0300 0.39 81.0K 84.4K -3.4K
020034 元大IC設計N 2024/07/23 7.8900 -0.31 57.0K 64.3K -7.3K
2807 Global X中國機械人及人工智能ETF 2024/07/23 39.2000 -0.12 21.5K 8.5K 13.0K
2812 三星中證中國龍網ETF 2024/07/23 9.7500 -0.42 7.6K 24.7K -17.1K
2814 三星 NYSE FANG+ ETF 2024/07/23 32.8000 0.79 11.0K 20.2K -9.2K
2826 Global X中國雲端運算ETF 2024/07/23 37.3200 -0.34 2.7K 4.9K -2.2K
2834 iShares安碩納斯達克100指數ETF 2024/07/23 374.6000 -0.37 5.1K 8.9K -3.8K
2837 Global X琤肮鴔滈TF 2024/07/23 4.3540 0.05 14.0K 38.0K -24.0K
2845 Global X中國電動車及電池 ETF 2024/07/23 64.8000 -0.54 80.5K 38.4K 42.1K
2849 Global X自動駕駛及電動車ETF 2024/07/23 50.4200 -0.85 0 51.6 -51.6
3006 Global X元宇宙主題主動型ETF 2024/07/23 83.1200 -0.61 0 245 -245
3030 惠理EMQQ新興市場網絡與電商ETF 2024/07/23 7.9450 1.05 0 0 0
3032 琤肮鴔獂數ETF 2024/07/23 3.5340 0.01 6.50M 10.03M -3.53M
3033 南方東英琤肮鴔獂數ETF 2024/07/23 3.4860 -0.05 390.91M 498.63M -107.72M
3034 南方東英納斯達克 100 ETF 2024/07/23 8.6450 -0.84 1.2K 7.2K -6.0K
3067 iShares安碩琤肮鴔滈TF 2024/07/23 7.4600 -0.01 11.50M 10.56M 934.1K
3072 日興資產管理環球互聯網ETF 2024/07/23 135.6500 -0.74 0 54 -54
3088 華夏琤肮鴔獂數ETF 2024/07/23 4.5000 0.03 241.6K 4.44M -4.20M
3091 日興資產管理元宇宙主題主動型ETF 2024/07/23 97.0600 0.09 50 1.0K -993
3109 南方東英科創板50指數ETF 2024/07/23 6.5700 -0.76 11.5K 24.8K -13.3K
3112 潘渡招商區塊鏈主題ETF 2024/07/23 17.1400 -1.45 3.4K 8.6K -5.2K
3117 Global X中國遊戲及娛樂 ETF 2024/07/23 30.6400 -1.50 0 20 -20
3119 Global X亞洲半導體 ETF 2024/07/23 59.6400 -0.05 11.7K 14.0K -2.4K
3124 Global X中國電子商務及物流 ETF 2024/07/23 40.2000 -0.91 0 15 -15
3132 三星彭博環球半導體ETF 2024/07/23 24.9000 2.04 15.0K 35.2K -20.2K
3134 南方東英華泰柏瑞中證太陽能產業ETF 2024/07/23 3.8320 -0.20 1.0K 16.5K -15.5K
3139 Global X電動車及電池主動型ETF 2024/07/23 54.0200 -0.75 0 44.3 -44.3
3151 Premia中國科創50ETF 2024/07/23 4.8120 -0.67 200 74.1K -73.9K
3162 南方東英全球智能駕駛指數ETF 2024/07/23 4.7200 -2.42 2.3K 2.5K -230
3171 三星區塊鏈技術 ETF 2024/07/23 28.0000 -2.64 150 124.7K -124.6K
3172 三星亞太元宇宙概念(新西蘭除外)ETF 2024/07/23 15.6100 -0.25 0 6.5K -6.5K
3181 Premia亞洲創新科技及元宇宙主題ETF 2024/07/23 81.3800 0.51 0 120 -120
3185 Global X金融科技ETF 2024/07/23 38.4200 -1.19 0 5 -5
3191 Global X中國半導體ETF 2024/07/23 33.2800 -0.09 34.9K 15.3K 19.6K
3193 南方東英銀華中證5G通信主題ETF 2024/07/23 5.4400 -0.34 0 260 -260
3194 南方東英全球雲計算科技指數ETF 2024/07/23 13.5900 -0.39 0 1.3K -1.3K
3405 富邦ICE FactSet亞洲電池及儲能科技指數ETF 2024/07/23 4.5460 684.13 0 200 -200
3412 都會財富精選電子支付 ETF 2024/07/23 8.2000 -0.44 1.2K 1.1K 110
3413 都會財富精選人工智能及自動化主動型 ETF 2024/07/23 7.8200 0.25 1.2K 1.1K 110
3426 都會財富精選 Web3 ETF 2024/07/23 7.9600 -0.58 1.2K 1.1K 90
83088 華夏琤肮鴔獂數ETF 2024/07/23 4.2000 -0.20 200 5.8K -5.6K
83151 Premia中國科創50ETF 2024/07/23 4.5020 -0.58 0 7.8K -7.8K
9067 iShares安碩琤肮鴔滈TF 2024/07/23 0.9550 -0.09 247.8K 283.0K -35.2K
9072 日興資產管理環球互聯網ETF 2024/07/23 17.3700 -0.76 0 0 0
9088 華夏琤肮鴔獂數ETF 2024/07/23 0.5770 -0.10 0 480 -480
9091 日興資產管理元宇宙主題主動型ETF 2024/07/23 12.4300 0.28 0 0 0
9151 Premia中國科創50ETF 2024/07/23 0.6170 -0.73 0 500 -500
9181 Premia亞洲創新科技及元宇宙主題ETF 2024/07/23 10.4300 0.58 0 0 0
9191 Global X中國半導體ETF 2024/07/23 4.2780 -0.40 7.0K 10.3K -3.3K
9807 Global X中國機械人及人工智能ETF 2024/07/23 5.0200 -0.48 0 2.7K -2.7K
9812 三星中證中國龍網ETF 2024/07/23 1.2520 -0.35 0 0 0
9814 三星 NYSE FANG+ ETF 2024/07/23 4.2000 0.79 1.2K 320 880
9826 Global X中國雲端運算ETF 2024/07/23 4.7780 -0.32 4.7K 15.1K -10.4K
9834 iShares安碩納斯達克100指數ETF 2024/07/23 47.9800 -0.60 0 90 -90
9845 Global X中國電動車及電池 ETF 2024/07/23 8.2850 -0.82 31.3K 28.2K 3.2K
AGIX KraneShares人工智慧與科技主動型ETF 2024/07/22 25.0250 -0.22 1.7K 26.7K -24.9K
AIFD TCW人工智慧主動型ETF 2024/07/22 27.0592 0.19 27.6K 13.2K 14.4K
AIPI REX人工智慧股票溢價收益主動型ETF 2024/07/22 53.2216 0.13 28.4K 27.3K 1.1K
AIQ Global X人工智慧與科技ETF 2024/07/22 35.7700 -0.09 367.4K 597.4K -230.0K
AMOM QRAFT人工智慧增強美國大型股動能主動型ETF 2024/07/22 41.7800 -0.03 9.8K 7.3K 2.4K
ANEW ProShares MSCI轉型變革ETF 2024/07/22 42.6841 -0.18 242 686.3 -444.3
ARKF ARK金融科技創新主動型ETF 2024/07/22 28.8600 -0.10 478.6K 801.1K -322.5K
ARKK ARK創新主動型ETF 2024/07/22 47.6600 0.02 5.32M 9.78M -4.46M
ARKW ARK Next物聯網主動型ETF 2024/07/22 82.5700 -0.13 119.9K 161.6K -41.7K
ARVR First Trust Indxx元宇宙ETF 2024/07/22 37.6344 0.34 80 729.7 -649.7
AWAY Amplify旅遊科技ETF 2024/07/22 19.8300 0.20 11.1K 13.8K -2.7K
BCDF Horizon Kinetics區塊鏈開發主動型ETF 2024/07/22 25.7552 0.14 189 1.0K -845.7

附註:
一、 績效計算為原幣別報酬,且皆有考慮配息情況。基金配息率不代表基金報酬率,且過去配息率不代表未來配息率。所有基金績效,均為過去績效,不代表未來之績效表現,亦不保證基金之最低投資收益。
二、 基金淨值可能因市場因素而上下波動,基金淨值僅供參考,實際以基金公司公告之淨值為準;海外市場指數類型基金,以交易日當天收盤價為淨值參考價。
三、 上述銷售費用僅供參考,實際費率以各銷售機構為主。
四、 上述資料只供參考用途,嘉實資訊自當盡力提供正確訊息,但如有錯漏或疏忽,本公司或關係企業與其任何董事或任何受僱人,恕不負任何法律責任。